Terminal Aerodrome Forecast
Issued by NWS

Home | Current Version | Previous Version | Text Only | Print | Product List | Glossary On
Versions: 1 2 3 4 5 6 7 8 9 10 11 12 13 14 15 16 17 18 19 20 21
848
FTUS46 KLOX 201107 AAC
TAFVNY
TAF AMD
KVNY 201107Z 2011/2106 12005KT P6SM -RA SCT035 OVC050
     FM201300 12012KT 5SM -RA BR BKN025 OVC040
     FM201600 13015G25KT 2SM RA BR VCTS BKN007CB OVC015
     FM202100 19015KT 4SM -SHRA BR BKN015 OVC025
     FM210300 23012KT P6SM VCSH BKN025=

USA.gov is the U.S. government's official web portal to all federal, state and local government web resources and services.